When you browse on this site, cookies collect data to enhance your experience and personalize the content and advertising you see.
Visit our Privacy Policy to learn more. By continuing to use the site, you agree to this use of cookies and data.
  • en Suisse
  • Liste des pays
  • À 7 jours
  • Température de l'eau
  • Carte satellitaire
  • Carte météo
  • Widgets météo
  • user-avatar
    Se connecter

    Météo par heure à Salta

    Ce jour, 23 Mai, Jeudi

    Heure Température Précipitation Vent Pression Humidité
    00:00 +6°C° 0.1 mm 2 m/s 652 mmHg 87%
    01:00 +6°C° 0.1 mm 2 m/s 652 mmHg 86%
    02:00 +6°C° 0.1 mm 1 m/s 652 mmHg 86%
    03:00 +6°C° 0 mm 1 m/s 651 mmHg 86%
    04:00 +6°C° 0 mm 1 m/s 651 mmHg 86%
    05:00 +6°C° 0 mm 1 m/s 651 mmHg 87%
    06:00 +6°C° 0 mm 1 m/s 652 mmHg 81%
    07:00 +7°C° 0 mm 1 m/s 653 mmHg 75%
    08:00 +8°C° 0 mm 1 m/s 653 mmHg 70%
    09:00 +10°C° 0 mm 1 m/s 654 mmHg 64%
    10:00 +12°C° 0 mm 2 m/s 654 mmHg 58%
    11:00 +14°C° 0 mm 2 m/s 655 mmHg 52%
    12:00 +15°C° 0 mm 2 m/s 655 mmHg 47%
    13:00 +16°C° 0 mm 2 m/s 654 mmHg 43%
    14:00 +17°C° 0 mm 3 m/s 654 mmHg 39%
    15:00 +16°C° 0 mm 2 m/s 654 mmHg 42%
    16:00 +15°C° 0 mm 2 m/s 654 mmHg 45%
    17:00 +15°C° 0 mm 2 m/s 653 mmHg 49%
    18:00 +13°C° 0 mm 1 m/s 653 mmHg 54%
    19:00 +11°C° 0 mm 1 m/s 653 mmHg 59%
    20:00 +8°C° 0 mm 1 m/s 653 mmHg 65%
    21:00 +8°C° 0 mm 1 m/s 653 mmHg 63%
    22:00 +8°C° 0 mm 1 m/s 653 mmHg 61%
    23:00 +8°C° 0 mm 1 m/s 653 mmHg 60%

    Demain, 24 Mai, Vendredi

    Heure Température Précipitation Vent Pression Humidité
    00:00 +8°C° 0 mm 1 m/s 653 mmHg 58%
    01:00 +8°C° 0 mm 1 m/s 652 mmHg 56%
    02:00 +8°C° 0 mm 1 m/s 652 mmHg 54%
    03:00 +8°C° 0 mm 1 m/s 652 mmHg 52%
    04:00 +8°C° 0 mm 1 m/s 652 mmHg 50%
    05:00 +8°C° 0 mm 1 m/s 651 mmHg 48%
    06:00 +9°C° 0 mm 1 m/s 652 mmHg 45%
    07:00 +10°C° 0 mm 1 m/s 652 mmHg 43%
    08:00 +11°C° 0 mm 1 m/s 653 mmHg 40%
    09:00 +14°C° 0 mm 1 m/s 653 mmHg 36%
    10:00 +16°C° 0 mm 2 m/s 654 mmHg 32%
    11:00 +19°C° 0 mm 2 m/s 655 mmHg 28%
    12:00 +20°C° 0 mm 2 m/s 654 mmHg 28%
    13:00 +20°C° 0 mm 3 m/s 653 mmHg 27%
    14:00 +21°C° 0 mm 3 m/s 652 mmHg 26%
    15:00 +20°C° 0 mm 2 m/s 651 mmHg 30%
    16:00 +18°C° 0 mm 2 m/s 651 mmHg 33%
    17:00 +17°C° 0 mm 2 m/s 650 mmHg 37%
    18:00 +15°C° 0 mm 1 m/s 650 mmHg 41%
    19:00 +13°C° 0 mm 1 m/s 649 mmHg 45%
    20:00 +11°C° 0 mm 1 m/s 649 mmHg 48%
    21:00 +11°C° 0 mm 1 m/s 649 mmHg 51%
    22:00 +10°C° 0 mm 1 m/s 649 mmHg 53%
    23:00 +9°C° 0 mm 1 m/s 649 mmHg 55%

    Après-demain, 25 Mai, Samedi

    Heure Température Précipitation Vent Pression Humidité
    00:00 +10°C° 0 mm 1 m/s 649 mmHg 55%
    01:00 +10°C° 0 mm 1 m/s 648 mmHg 55%
    02:00 +10°C° 0 mm 1 m/s 648 mmHg 54%
    03:00 +10°C° 0 mm 1 m/s 648 mmHg 53%
    04:00 +10°C° 0 mm 1 m/s 648 mmHg 51%
    05:00 +10°C° 0 mm 1 m/s 648 mmHg 49%
    06:00 +11°C° 0 mm 1 m/s 648 mmHg 47%
    07:00 +12°C° 0 mm 1 m/s 649 mmHg 45%
    08:00 +12°C° 0 mm 1 m/s 649 mmHg 43%
    09:00 +15°C° 0 mm 1 m/s 650 mmHg 39%
    10:00 +18°C° 0 mm 2 m/s 650 mmHg 34%
    11:00 +21°C° 0 mm 2 m/s 651 mmHg 30%
    12:00 +23°C° 0 mm 2 m/s 650 mmHg 29%
    13:00 +24°C° 0 mm 2 m/s 649 mmHg 28%
    14:00 +25°C° 0 mm 3 m/s 648 mmHg 27%
    15:00 +24°C° 0 mm 2 m/s 648 mmHg 32%
    16:00 +21°C° 0 mm 2 m/s 647 mmHg 38%
    17:00 +20°C° 0 mm 2 m/s 647 mmHg 43%
    18:00 +19°C° 0 mm 1 m/s 647 mmHg 48%
    19:00 +15°C° 0 mm 1 m/s 647 mmHg 53%
    20:00 +13°C° 0 mm 1 m/s 647 mmHg 58%
    21:00 +13°C° 0 mm 1 m/s 647 mmHg 56%
    22:00 +13°C° 0 mm 1 m/s 647 mmHg 55%
    23:00 +13°C° 0 mm 1 m/s 647 mmHg 53%

    26 Mai, Dimanche

    Heure Température Précipitation Vent Pression Humidité
    00:00 +13°C° 0 mm 1 m/s 647 mmHg 51%
    01:00 +13°C° 0 mm 2 m/s 647 mmHg 49%
    02:00 +13°C° 0 mm 2 m/s 647 mmHg 47%
    03:00 +13°C° 0 mm 2 m/s 647 mmHg 45%
    04:00 +13°C° 0 mm 2 m/s 647 mmHg 42%
    05:00 +13°C° 0 mm 2 m/s 646 mmHg 40%
    06:00 +14°C° 0 mm 2 m/s 647 mmHg 38%
    07:00 +14°C° 0 mm 2 m/s 648 mmHg 36%
    08:00 +15°C° 0 mm 2 m/s 648 mmHg 34%
    09:00 +19°C° 0 mm 2 m/s 649 mmHg 30%
    10:00 +23°C° 0 mm 2 m/s 650 mmHg 26%
    11:00 +26°C° 0 mm 2 m/s 650 mmHg 22%
    12:00 +27°C° 0 mm 3 m/s 650 mmHg 23%
    13:00 +27°C° 0 mm 3 m/s 649 mmHg 23%
    14:00 +28°C° 0 mm 4 m/s 648 mmHg 23%
    15:00 +26°C° 0 mm 3 m/s 648 mmHg 29%
    16:00 +25°C° 0 mm 3 m/s 648 mmHg 35%
    17:00 +22°C° 0 mm 3 m/s 648 mmHg 42%
    18:00 +19°C° 0 mm 2 m/s 648 mmHg 50%
    19:00 +17°C° 0 mm 2 m/s 648 mmHg 58%
    20:00 +14°C° 0 mm 2 m/s 648 mmHg 66%
    21:00 +14°C° 0 mm 2 m/s 648 mmHg 65%
    22:00 +14°C° 0 mm 2 m/s 648 mmHg 65%
    23:00 +14°C° 0 mm 2 m/s 648 mmHg 64%

    27 Mai, Lundi

    Heure Température Précipitation Vent Pression Humidité
    00:00 +13°C° 0 mm 1 m/s 648 mmHg 63%
    01:00 +13°C° 0 mm 1 m/s 648 mmHg 62%
    02:00 +13°C° 0 mm 1 m/s 647 mmHg 60%
    03:00 +13°C° 0 mm 1 m/s 647 mmHg 59%
    04:00 +13°C° 0 mm 1 m/s 647 mmHg 57%
    05:00 +13°C° 0 mm 1 m/s 647 mmHg 55%
    06:00 +13°C° 0 mm 1 m/s 648 mmHg 52%
    07:00 +14°C° 0 mm 1 m/s 648 mmHg 49%
    08:00 +14°C° 0 mm 2 m/s 649 mmHg 46%
    09:00 +17°C° 0 mm 2 m/s 649 mmHg 41%
    10:00 +20°C° 0 mm 2 m/s 650 mmHg 36%
    11:00 +24°C° 0 mm 3 m/s 650 mmHg 30%
    12:00 +24°C° 0 mm 3 m/s 649 mmHg 27%
    13:00 +25°C° 0 mm 3 m/s 649 mmHg 23%
    14:00 +26°C° 0 mm 4 m/s 648 mmHg 19%
    15:00 +24°C° 0 mm 3 m/s 648 mmHg 25%
    16:00 +23°C° 0 mm 2 m/s 648 mmHg 31%
    17:00 +21°C° 0 mm 2 m/s 648 mmHg 36%
    18:00 +18°C° 0 mm 2 m/s 648 mmHg 44%
    19:00 +16°C° 0 mm 2 m/s 648 mmHg 51%
    20:00 +14°C° 0 mm 1 m/s 648 mmHg 58%
    21:00 +14°C° 0 mm 1 m/s 648 mmHg 59%
    22:00 +14°C° 0 mm 1 m/s 648 mmHg 59%
    23:00 +13°C° 0 mm 1 m/s 648 mmHg 60%

    28 Mai, Mardi

    Heure Température Précipitation Vent Pression Humidité
    00:00 +13°C° 0 mm 1 m/s 648 mmHg 59%
    01:00 +13°C° 0 mm 1 m/s 648 mmHg 57%
    02:00 +13°C° 0 mm 1 m/s 648 mmHg 56%
    03:00 +13°C° 0 mm 1 m/s 648 mmHg 55%
    04:00 +13°C° 0 mm 1 m/s 648 mmHg 54%
    05:00 +12°C° 0 mm 2 m/s 648 mmHg 53%
    06:00 +13°C° 0 mm 1 m/s 649 mmHg 52%
    07:00 +13°C° 0 mm 1 m/s 650 mmHg 51%
    08:00 +14°C° 0 mm 1 m/s 650 mmHg 50%
    09:00 +16°C° 0 mm 2 m/s 651 mmHg 45%
    10:00 +19°C° 0 mm 2 m/s 651 mmHg 41%
    11:00 +21°C° 0 mm 2 m/s 652 mmHg 36%
    12:00 +21°C° 0 mm 2 m/s 651 mmHg 34%
    13:00 +22°C° 0 mm 3 m/s 651 mmHg 32%
    14:00 +24°C° 0 mm 3 m/s 651 mmHg 29%
    15:00 +21°C° 0 mm 3 m/s 650 mmHg 38%
    16:00 +20°C° 0 mm 3 m/s 650 mmHg 46%
    17:00 +18°C° 0 mm 2 m/s 650 mmHg 54%
    18:00 +17°C° 0 mm 2 m/s 650 mmHg 65%
    19:00 +15°C° 0 mm 1 m/s 650 mmHg 76%
    20:00 +13°C° 0 mm 1 m/s 650 mmHg 86%
    21:00 +13°C° 0 mm 1 m/s 651 mmHg 86%
    22:00 +13°C° 0 mm 1 m/s 651 mmHg 86%
    23:00 +13°C° 0 mm 1 m/s 651 mmHg 86%
    Voir plus